Theta_e
351 351 347 338 334 337 341 346 344 344 342 341 342 341 341 339 336 332 332 335 335 337 334 329 327 326 325 329 334 337 338 339 338 338 338 339 339 339 340 340 340 340 339 339 339 340 340 340 340 340 340 340 338 335 334 334 334 335 336 337 337 337 337 337 336 336 336 334 333 331 330 329 329 330 330 328 328 329 328 328 328 327 327 327 328
352 350 348 339 335 336 340 346 344 345 344 341 341 340 340 338 336 334 334 336 338 336 329 325 324 325 329 334 336 338 339 339 339 339 339 339 340 340 341 341 341 340 339 338 339 339 339 338 339 339 337 334 331 329 329 328 328 329 330 331 331 332 334 335 334 333 331 329 329 328 327 328 330 330 329 328 329 330 330 330 329 328 328 328 327
351 349 348 341 334 335 339 343 343 344 343 342 341 340 340 338 337 336 337 338 337 330 323 323 326 330 334 336 336 339 341 341 340 340 340 340 341 341 341 341 341 340 338 337 337 336 336 336 335 333 329 329 331 333 334 333 331 329 327 327 328 328 329 330 330 330 329 328 329 328 328 329 329 329 328 329 330 330 330 328 327 328 328 325 325
351 349 347 342 334 332 335 339 339 341 341 342 341 341 341 340 339 338 339 337 332 325 325 328 329 333 335 336 338 340 341 341 341 341 341 341 341 341 341 341 340 338 336 335 333 332 331 329 329 329 331 333 335 337 336 333 332 331 330 329 328 326 325 326 326 325 326 329 330 329 328 328 329 328 327 328 329 328 326 325 326 327 326 326 326
351 348 347 344 338 332 331 334 336 338 340 342 342 342 342 341 340 339 337 332 327 327 331 331 333 336 337 339 340 341 340 341 341 341 341 341 341 340 340 339 337 336 334 333 330 328 328 329 333 336 337 338 337 335 332 331 330 331 330 328 324 321 321 322 322 321 324 329 328 328 328 327 329 328 327 328 329 328 327 326 327 326 325 327 327
350 347 346 344 343 335 327 331 334 339 340 342 341 341 341 340 339 337 332 328 328 332 334 334 337 340 340 341 340 340 341 341 341 341 341 339 338 337 337 335 335 334 333 332 329 329 332 336 339 340 339 337 334 332 331 330 329 328 326 323 321 320 320 321 323 325 328 329 328 328 327 328 328 328 330 330 328 329 329 329 329 327 327 328 327
349 347 345 343 345 336 324 326 331 338 338 338 339 339 339 337 335 331 329 329 332 335 336 337 339 341 341 341 340 340 341 341 341 341 339 336 335 335 334 333 333 334 334 334 334 335 338 340 341 340 338 335 332 330 330 328 327 326 324 323 322 321 322 325 328 330 329 328 328 328 328 329 329 329 330 328 328 329 330 329 329 328 328 328 326
348 346 345 344 344 333 322 323 327 332 332 333 335 336 334 331 330 328 331 333 336 338 339 340 341 341 341 340 340 340 340 341 341 341 337 334 334 334 334 334 335 337 338 338 338 339 340 341 340 338 335 333 331 330 329 326 325 325 324 323 322 322 323 327 329 329 329 328 329 330 331 332 331 331 329 326 327 328 328 327 326 326 327 326 325
348 346 344 345 342 328 321 323 323 326 327 328 329 328 328 327 328 329 334 338 340 341 341 341 341 340 340 340 340 340 341 341 341 340 334 333 336 337 338 339 339 340 340 340 340 340 340 340 338 335 333 331 330 330 327 325 324 324 324 323 322 322 324 328 329 328 329 329 329 330 330 330 330 329 328 326 326 328 327 326 326 326 325 324 325
348 347 344 346 340 325 322 323 321 323 322 324 324 325 326 327 329 331 336 340 340 341 341 340 339 339 339 339 339 339 341 341 341 338 334 335 338 340 340 341 341 341 340 339 340 340 339 336 334 333 331 331 330 329 326 324 323 323 323 322 322 322 326 328 328 328 328 328 328 328 327 327 327 327 328 327 327 328 327 327 326 325 325 325 326
348 347 344 346 337 323 324 323 321 322 320 322 323 324 327 328 331 335 339 340 340 341 339 339 339 339 338 339 338 338 340 341 340 338 336 337 339 340 340 341 340 340 339 338 339 339 336 333 332 331 331 331 330 328 326 324 322 322 322 322 321 324 328 328 328 329 327 327 327 327 328 327 326 326 328 328 328 328 327 327 325 325 326 326 326
348 346 345 345 334 324 325 324 322 322 322 324 323 325 328 331 334 338 339 339 340 340 338 338 339 338 338 338 337 337 338 340 340 337 336 337 339 339 340 340 339 338 337 338 338 337 334 332 332 332 331 331 329 328 326 324 323 321 321 321 321 325 329 328 329 328 327 328 328 327 327 327 327 328 329 328 329 328 327 326 324 325 326 326 325
347 347 347 344 338 331 327 325 324 323 325 327 327 329 331 333 336 339 339 339 340 339 338 338 338 338 337 337 337 335 335 338 339 338 337 337 338 339 339 339 338 336 336 336 335 334 332 332 332 332 331 330 329 328 327 324 323 321 320 320 321 327 329 328 328 327 327 327 328 328 326 326 327 329 329 328 328 327 326 325 324 326 326 326 325
347 349 347 344 343 338 333 330 328 325 327 330 331 332 333 334 336 339 339 339 340 339 339 339 339 338 337 337 337 336 334 335 338 339 338 337 338 338 339 339 338 335 334 333 332 332 332 333 332 332 331 330 329 329 327 325 324 321 320 319 321 327 328 328 328 327 327 326 328 328 328 329 329 329 328 327 326 325 325 325 326 326 325 325 324
349 349 346 344 343 341 338 334 330 328 328 331 333 334 334 335 336 338 338 339 339 339 339 340 340 338 337 337 337 336 336 335 336 338 339 338 338 338 338 338 337 335 333 332 331 332 332 333 332 332 331 331 330 329 328 325 324 322 319 319 322 328 328 327 327 327 327 326 327 327 328 330 329 329 327 326 326 325 325 326 325 325 324 324 323
349 348 347 345 343 342 341 338 335 330 328 329 332 334 335 335 336 337 338 338 338 338 338 340 340 338 338 338 338 337 337 336 334 336 337 338 338 338 338 338 337 335 333 332 331 331 332 333 333 333 332 332 331 330 328 326 325 323 320 319 322 327 328 327 328 328 327 326 327 327 328 329 329 328 327 325 325 325 325 324 324 324 324 323 323
349 348 347 345 344 343 341 341 339 335 332 331 331 334 334 333 335 337 337 337 337 337 338 339 339 339 339 339 339 339 339 338 336 334 334 335 337 338 338 337 337 335 333 332 332 331 332 333 334 334 334 333 332 330 329 327 326 324 321 319 321 326 328 328 328 328 327 326 327 327 327 328 327 327 326 323 323 324 324 324 324 324 323 323 323
349 348 348 346 345 344 343 342 340 339 339 337 336 336 335 334 332 334 336 336 337 337 338 339 338 339 339 339 339 340 340 339 338 337 334 333 334 336 337 337 336 335 333 332 332 332 332 333 334 335 335 334 332 331 329 327 327 324 322 319 320 325 328 328 328 327 326 326 327 328 327 326 325 326 325 322 323 325 324 324 324 323 323 323 323
349 348 348 347 345 343 343 343 342 341 341 340 339 338 337 337 334 333 334 335 336 337 338 338 338 338 338 338 339 339 340 340 339 339 338 336 334 333 333 335 335 335 333 332 332 332 332 333 334 335 335 334 332 331 329 327 327 325 322 320 322 326 328 327 327 326 326 326 326 326 326 325 324 324 324 323 324 324 324 323 323 323 323 323 323
349 349 349 348 347 345 344 343 343 343 342 342 340 339 338 338 337 336 335 336 337 337 338 339 338 338 337 337 338 338 340 339 339 339 339 339 338 334 329 329 331 333 333 332 331 331 332 332 333 334 334 334 332 331 329 328 327 325 323 322 325 328 327 327 326 326 326 326 325 325 324 325 324 324 325 324 324 324 324 323 322 322 323 322 322
347 346 347 349 346 345 347 345 345 344 343 343 341 340 338 337 338 337 337 338 338 338 337 338 337 337 337 335 336 339 341 340 339 340 339 339 340 337 330 327 328 331 332 332 331 331 331 331 331 333 334 334 333 331 329 327 327 325 324 326 328 328 328 327 327 326 326 326 325 324 323 323 324 326 326 324 322 323 324 322 322 322 322 321 321
342 341 343 345 340 339 343 344 345 345 344 343 342 342 339 338 339 337 337 337 338 338 337 338 338 337 337 336 337 340 341 340 341 340 340 340 339 337 335 329 328 329 331 332 331 331 330 330 330 332 334 334 334 333 331 330 328 326 326 329 328 327 328 328 327 326 326 326 326 324 322 323 325 326 326 323 322 324 324 322 321 322 322 321 321
340 339 341 343 340 338 340 340 339 341 342 342 341 342 340 339 340 339 338 337 338 339 338 339 339 339 339 338 339 340 339 339 341 341 339 339 337 336 337 333 330 328 329 330 330 330 330 329 329 331 333 335 336 337 335 335 332 330 329 330 329 328 328 327 327 326 325 326 326 324 322 323 326 326 325 323 323 324 324 322 322 322 321 321 321
342 342 342 341 339 339 341 341 337 336 340 340 338 339 340 340 341 340 340 339 338 339 340 340 340 340 340 340 339 339 339 338 339 340 339 338 337 335 337 336 334 330 328 330 331 329 329 329 328 330 334 337 338 337 336 337 335 333 331 330 329 328 328 328 328 327 326 326 326 324 323 324 325 324 324 323 323 324 323 322 322 322 321 321 321
340 342 341 338 340 341 340 340 337 336 337 338 338 339 339 339 340 340 340 339 339 340 340 340 339 340 340 339 339 339 339 338 339 339 337 338 337 336 336 337 337 335 331 334 335 331 332 333 332 333 337 338 338 338 337 336 335 333 331 331 330 328 328 328 328 327 327 327 324 323 324 324 324 323 323 323 323 324 324 323 322 322 321 321 320
342 342 339 338 341 341 338 338 338 338 339 339 339 340 339 339 339 339 339 339 340 340 340 340 340 340 340 338 338 339 338 337 338 338 337 337 337 337 337 337 338 338 336 337 338 335 335 336 335 336 338 338 338 338 337 336 335 334 332 332 331 329 328 328 328 328 327 327 323 322 324 323 323 323 323 323 323 323 322 322 322 321 321 321 320
345 342 339 340 340 339 339 339 339 340 341 340 340 340 339 339 339 338 338 338 338 339 340 340 340 341 340 339 338 338 338 337 338 338 337 337 337 336 337 337 337 338 338 337 338 337 337 336 336 337 337 337 338 338 337 336 334 334 333 332 331 330 329 328 328 328 327 327 324 323 324 323 324 324 323 323 323 322 321 321 322 321 321 321 320
345 341 338 340 339 339 341 340 340 340 341 341 340 340 340 340 340 339 338 338 339 338 338 339 339 341 341 340 339 338 337 337 337 338 337 337 337 336 336 336 336 338 338 337 337 337 337 337 336 337 337 337 338 338 337 336 335 334 334 333 332 332 330 328 328 328 328 328 326 324 324 324 323 323 323 323 322 322 322 322 322 322 322 321 320
343 341 337 337 338 340 342 341 341 341 340 341 340 340 340 340 339 339 339 338 339 338 337 338 338 339 341 340 339 338 337 336 337 337 337 336 336 336 336 336 336 337 337 337 337 336 336 336 336 336 337 337 338 338 337 336 336 335 335 334 333 333 331 330 329 329 328 328 327 323 323 324 323 323 323 323 322 322 322 322 321 321 321 321 320
341 341 338 337 338 340 341 341 342 341 341 341 341 341 340 339 339 338 338 338 338 338 338 338 338 339 340 340 339 339 338 336 337 336 336 337 336 336 336 336 336 336 336 336 336 336 336 335 336 336 337 338 338 338 337 337 336 335 335 335 334 333 332 331 330 330 329 329 328 324 321 323 324 324 323 322 322 322 322 321 321 321 320 320 321
338 338 338 338 339 340 340 340 341 341 341 341 341 341 340 340 339 338 338 338 338 338 338 339 339 339 339 339 338 339 339 337 337 336 336 336 336 336 335 335 335 336 336 335 335 336 336 335 335 336 337 338 338 338 337 337 336 336 336 335 334 334 333 332 331 330 330 329 329 327 323 321 322 324 323 322 322 322 321 321 321 320 320 320 320
332 332 332 333 335 337 338 338 339 339 340 340 340 341 340 340 340 339 339 339 338 338 338 338 339 338 338 339 338 338 338 337 337 338 337 336 336 336 335 335 335 335 336 335 335 335 335 335 335 336 336 337 338 339 337 337 337 336 336 336 335 334 334 333 332 331 331 330 330 329 327 324 322 322 322 323 323 322 321 321 321 320 320 320 319
327 327 327 327 328 330 333 334 336 337 338 339 339 339 340 340 340 339 339 339 339 339 339 339 338 338 338 337 338 338 336 335 336 337 337 336 336 336 335 336 335 335 336 336 336 335 334 334 334 335 336 336 338 338 338 337 338 337 336 336 335 335 334 334 333 332 331 331 331 330 329 329 326 323 321 321 322 321 322 322 321 321 321 320 320
324 325 325 325 324 325 328 329 331 334 337 337 338 338 338 339 339 339 340 339 339 339 339 339 339 339 338 336 336 336 335 335 333 334 336 336 336 336 335 335 335 335 336 336 336 336 335 334 334 334 335 336 337 338 338 337 337 338 337 336 336 335 335 334 334 334 333 332 332 331 330 329 329 327 324 321 319 318 321 323 322 322 321 320 320
322 323 324 325 324 324 325 326 326 330 334 335 336 336 337 337 338 338 338 338 339 339 339 339 338 339 338 336 335 333 334 334 333 332 335 336 335 336 335 334 335 335 335 335 336 336 336 336 335 334 334 335 336 337 337 336 336 336 336 336 336 336 336 335 334 334 334 333 332 332 331 330 329 329 328 326 322 319 319 322 322 322 321 320 321
321 322 322 323 323 322 323 323 322 325 328 332 333 334 335 336 336 337 337 337 337 337 337 338 338 338 338 337 336 335 335 335 334 334 335 336 335 336 336 334 334 335 334 335 335 335 335 336 336 335 335 335 334 335 336 337 337 336 336 337 337 336 336 335 335 335 334 334 333 332 332 331 330 329 329 329 328 325 321 320 319 320 321 322 320
319 319 319 321 321 321 321 320 319 321 323 326 329 332 334 334 335 336 336 337 337 337 337 337 338 338 338 338 337 337 336 335 335 335 336 336 335 336 337 335 335 334 334 335 335 335 336 336 336 335 334 333 333 333 335 335 336 337 337 337 337 337 337 336 336 336 335 335 334 333 333 332 331 329 329 328 329 329 327 322 318 316 320 322 321
318 318 317 318 319 320 320 318 316 317 320 323 326 330 334 334 334 335 336 336 337 336 336 337 337 337 337 337 337 337 336 336 336 336 336 336 335 336 337 337 336 335 335 335 335 335 336 336 336 334 333 332 331 332 333 333 334 335 336 337 337 337 337 337 336 337 336 335 335 334 334 333 332 330 329 329 329 329 329 327 322 318 318 319 320
317 318 317 317 318 318 320 319 316 315 319 323 325 328 331 333 334 334 335 336 336 336 336 336 336 336 336 336 336 336 336 336 336 336 336 336 336 336 337 337 338 336 334 335 335 335 336 336 336 334 333 331 330 330 331 332 333 333 335 336 337 337 337 337 337 337 336 336 336 335 335 333 333 332 330 330 330 330 329 329 327 324 322 321 321
317 318 318 318 318 318 319 319 318 317 320 323 324 325 326 329 331 332 333 335 335 336 336 336 336 336 336 336 335 336 336 336 336 336 336 336 336 337 337 338 338 336 334 335 335 335 336 337 336 335 334 332 330 329 330 331 332 333 335 335 336 336 336 336 336 337 336 336 336 336 335 334 333 333 332 330 330 329 330 329 329 328 328 327 325
318 318 318 319 319 319 319 319 319 319 321 321 322 324 325 326 329 331 332 332 333 334 335 335 336 336 336 336 335 335 335 335 335 336 336 336 335 336 337 338 338 336 334 335 335 335 336 336 336 335 335 333 331 330 330 331 333 334 334 335 335 335 335 336 336 336 336 336 337 337 336 336 335 334 333 332 331 330 329 329 329 329 329 328 327
317 318 318 319 319 320 319 319 319 319 320 321 321 322 323 324 327 329 331 331 331 332 333 334 335 335 335 335 334 334 334 335 335 335 335 336 336 336 337 337 337 336 335 335 335 336 336 336 336 335 334 335 333 332 332 333 333 333 334 333 335 335 335 336 336 335 336 336 337 337 337 337 336 335 334 333 332 330 330 329 329 329 329 329 328
317 317 318 318 319 319 319 319 319 319 320 320 320 320 321 322 323 326 329 330 330 331 332 333 333 334 334 334 334 334 334 335 335 334 335 335 336 337 337 338 338 337 336 335 335 336 336 336 336 335 335 335 335 334 335 336 333 332 334 333 333 334 335 336 336 335 336 337 336 337 338 338 337 337 334 334 333 332 331 330 329 329 329 329 329
316 316 317 317 318 319 319 319 319 319 320 320 320 320 320 321 322 324 327 329 329 330 331 332 332 333 333 334 334 334 335 335 334 335 335 335 335 336 337 338 338 338 337 336 335 335 335 336 336 336 336 335 334 334 337 338 335 332 333 333 333 333 333 335 337 336 335 336 336 336 338 338 338 337 335 334 334 334 332 331 330 330 330 330 329
315 316 316 317 318 318 318 318 319 319 319 320 320 320 320 321 322 323 324 326 328 329 330 331 331 332 332 333 334 334 334 334 334 334 334 334 335 336 336 337 338 339 338 336 335 335 335 335 335 335 335 335 334 334 336 339 338 335 333 333 333 333 333 333 337 338 337 336 336 336 337 338 338 337 336 335 334 334 333 332 331 330 330 330 330
315 315 316 316 317 317 317 318 319 319 319 319 320 320 321 322 322 323 323 324 326 327 328 329 330 331 331 333 333 333 334 334 334 334 334 334 335 336 336 336 337 338 338 337 336 336 336 334 333 333 334 335 335 334 335 337 339 338 336 334 334 334 334 334 336 338 339 339 338 337 337 338 338 337 336 335 335 334 334 333 332 332 331 330 330
313 314 314 315 315 316 317 317 318 318 319 319 319 320 320 321 322 323 324 324 324 325 326 327 329 329 330 331 332 332 333 334 334 334 334 334 334 336 336 336 336 336 337 338 337 337 336 334 333 333 333 334 334 335 334 336 339 339 337 336 335 335 335 334 334 335 337 338 337 337 337 337 337 337 336 336 335 334 334 334 333 333 332 331 331
313 313 314 314 314 315 316 316 317 318 319 319 319 319 318 319 320 321 323 324 325 325 326 326 327 328 328 329 330 332 333 333 334 334 334 334 334 334 335 336 336 336 337 338 338 337 336 335 335 335 334 334 334 334 334 334 337 338 338 337 336 336 336 335 335 334 335 336 335 336 337 337 337 337 336 336 335 334 334 334 333 333 333 332 332
313 313 313 313 314 314 314 315 316 317 318 318 318 318 318 319 319 320 321 322 323 325 325 325 326 326 327 328 330 331 332 333 334 334 334 334 335 335 335 336 335 335 336 337 336 336 336 337 338 338 337 337 336 336 336 335 335 336 337 337 336 336 336 335 335 335 334 335 335 335 336 337 337 337 337 336 335 335 334 334 334 333 333 333 333
313 313 313 313 313 312 312 313 315 317 317 317 317 318 319 320 319 320 320 321 323 324 325 325 325 325 326 327 328 330 331 332 334 334 335 335 335 335 336 336 335 334 335 335 334 334 335 338 339 339 338 338 337 337 338 337 337 337 337 337 337 337 337 336 336 336 335 335 335 334 336 337 337 338 337 337 336 335 335 334 334 334 333 333 333
313 313 313 313 312 312 312 313 314 316 316 317 317 318 319 320 320 321 321 321 322 324 325 325 325 324 325 326 327 329 331 332 332 334 335 335 335 336 336 337 336 335 334 334 333 333 335 336 336 336 336 335 336 338 338 339 339 338 338 338 337 336 337 336 336 338 337 336 335 335 336 337 336 337 337 337 337 336 335 334 334 335 334 333 333
Wind_Speed
16 17 19 22 22 20 18 16 18 20 23 24 24 24 24 24 24 24 23 22 20 18 16 16 16 16 17 18 19 19 18 17 16 17 17 18 17 18 17 17 17 18 18 18 17 16 16 16 16 16 17 17 17 17 16 15 14 14 13 13 13 13 13 14 14 14 14 15 15 15 16 17 17 17 17 17 16 16 15 15 16 16 18 19 19
17 18 19 21 22 20 19 17 17 19 22 25 25 24 24 24 24 23 22 21 19 17 16 16 17 18 19 19 19 19 18 17 16 16 17 17 17 17 17 17 17 17 17 17 17 16 16 16 16 15 15 16 16 16 15 14 13 12 11 11 11 11 11 12 12 12 13 13 14 15 16 18 18 17 18 17 16 17 17 18 17 17 18 19 18
19 19 19 21 22 21 19 18 19 21 22 24 25 25 24 24 23 22 21 19 18 17 17 18 19 20 20 19 19 18 17 16 16 16 16 17 17 17 17 17 17 17 17 17 16 16 16 15 15 14 15 15 15 15 14 13 11 10 9 9 9 9 9 9 11 12 12 13 14 15 17 19 18 17 18 17 17 18 19 19 18 18 18 18 17
20 20 19 21 22 22 20 19 21 22 22 22 23 24 23 23 22 21 20 19 18 17 18 19 20 20 20 20 19 17 16 16 16 16 16 17 17 17 17 17 17 17 17 16 16 16 15 15 14 14 14 14 14 13 12 11 9 8 8 8 8 8 8 8 10 11 13 13 11 12 15 16 17 17 17 17 18 18 18 18 18 18 18 18 18
20 20 20 20 21 22 21 20 21 21 21 21 22 22 22 22 22 22 20 19 19 18 18 18 20 20 20 19 17 17 16 15 16 17 17 17 16 16 17 17 17 17 16 16 16 16 15 15 14 14 13 13 12 12 10 10 9 9 8 8 8 8 9 11 13 14 16 15 11 12 14 15 16 17 17 17 17 18 18 18 18 18 17 17 18
20 20 21 20 19 21 22 22 21 21 21 21 21 22 22 23 22 22 20 19 19 18 18 18 19 18 18 18 17 16 15 15 17 18 18 17 16 17 17 17 17 17 16 16 15 15 14 14 13 13 13 12 12 11 11 10 10 9 9 9 9 11 12 15 16 16 15 14 13 13 14 15 16 16 17 17 17 17 17 18 18 16 16 17 18
21 21 20 19 19 21 24 23 22 21 21 22 22 24 24 24 23 22 21 20 19 19 19 18 18 17 17 17 16 16 15 16 18 18 17 17 17 17 17 17 17 16 16 15 15 14 13 12 12 12 12 12 12 12 11 11 10 9 9 10 12 13 15 17 15 13 12 12 13 13 14 14 15 17 17 17 16 15 16 18 17 15 16 17 17
20 21 20 19 19 22 25 24 24 22 23 24 24 25 24 23 22 21 20 20 20 19 19 18 17 16 16 16 16 15 15 16 17 17 17 18 18 18 17 17 16 16 15 15 14 13 12 12 12 12 12 12 11 12 12 11 10 9 9 10 12 14 16 17 15 13 12 12 14 14 16 16 16 17 16 15 14 14 15 16 16 15 16 16 16
20 20 20 18 19 23 25 25 25 24 25 25 25 25 24 23 20 20 20 20 20 19 18 18 17 17 15 15 15 15 15 16 17 17 18 18 18 18 17 16 15 15 14 13 13 13 13 12 13 12 12 11 11 11 12 12 11 9 9 10 12 14 16 15 13 13 13 13 14 14 15 15 15 15 15 14 13 13 13 14 15 15 15 15 16
20 20 19 18 21 24 25 26 26 25 26 25 25 25 23 21 20 20 20 20 19 19 18 18 17 17 16 15 15 15 15 16 16 17 18 18 17 17 16 16 15 14 13 13 13 13 13 13 13 12 11 11 11 11 12 13 11 10 10 11 12 14 16 15 13 13 13 14 13 13 13 13 13 14 14 15 14 13 13 14 16 15 15 15 15
20 20 19 19 23 25 25 26 26 25 25 25 24 23 23 21 20 20 20 20 19 18 18 19 17 16 16 15 15 15 14 15 16 17 17 17 17 16 16 15 14 13 13 13 13 13 13 12 12 11 11 11 11 11 12 13 12 11 11 11 12 14 15 13 12 13 14 14 14 14 13 13 14 14 15 15 14 15 16 15 15 15 14 14 15
20 19 18 20 22 24 25 25 25 25 24 23 23 23 22 21 21 21 20 20 19 18 18 18 18 17 16 15 14 14 14 15 16 17 17 17 16 16 15 15 14 13 13 13 13 13 12 12 11 11 11 11 11 11 12 13 12 11 11 11 12 14 14 12 12 13 14 14 14 14 13 14 15 15 15 16 15 15 17 15 14 14 14 14 15
20 18 19 21 21 23 24 24 24 23 23 22 22 22 22 21 21 21 21 20 19 18 18 17 17 17 16 15 14 13 14 15 16 16 16 16 16 15 15 14 14 13 13 13 13 12 12 11 11 11 10 10 10 11 12 12 12 11 11 11 13 14 13 12 12 13 13 13 14 13 12 13 14 14 14 15 15 14 15 14 14 14 14 14 14
19 18 20 21 20 21 22 22 23 22 22 21 21 21 22 22 22 22 21 20 19 19 18 17 16 16 16 15 14 13 13 14 15 16 15 15 15 15 14 14 14 13 13 12 12 12 12 11 11 11 10 10 10 11 12 12 12 12 11 10 13 15 13 12 12 13 13 13 13 12 13 13 14 14 14 14 14 13 13 14 14 13 13 14 14
20 20 20 21 20 20 20 21 21 21 22 21 21 22 22 23 22 23 22 21 20 20 19 17 16 16 16 15 14 14 13 13 14 15 15 15 14 14 13 12 13 12 12 12 11 11 11 11 11 10 9 9 9 10 11 12 12 12 11 10 12 14 12 11 11 12 12 12 13 12 13 13 14 14 14 14 13 13 13 13 13 12 12 13 13
21 22 21 21 22 21 20 19 20 21 22 22 22 22 23 23 23 23 22 21 21 20 20 18 16 16 16 15 15 14 13 13 13 14 14 15 14 14 13 11 11 12 12 11 10 9 10 10 10 10 9 9 9 10 10 11 12 12 11 10 12 13 11 10 10 11 11 11 12 12 12 12 13 13 13 13 12 13 12 12 12 11 11 12 11
21 22 22 22 23 22 21 19 19 20 21 21 21 22 23 23 24 24 23 22 21 21 20 19 17 16 15 15 15 14 13 13 13 12 12 13 14 13 13 11 11 11 11 11 9 8 9 9 10 9 9 8 8 9 10 11 12 12 11 10 11 12 11 10 9 10 10 11 11 11 11 11 12 11 11 11 11 11 12 12 11 11 11 11 10
21 21 22 23 23 21 21 21 20 19 19 19 19 21 23 23 23 24 23 22 22 22 21 19 18 16 15 14 14 13 13 13 13 12 12 12 13 13 13 12 11 11 11 10 9 8 8 8 8 8 8 8 8 8 9 10 11 11 11 10 11 12 13 11 9 10 10 11 11 10 10 10 9 9 10 10 10 11 11 11 11 11 10 10 10
19 20 21 21 21 21 20 21 21 19 19 18 18 19 21 22 22 23 23 23 22 22 21 20 18 17 15 14 14 13 12 12 12 12 12 11 11 11 12 12 12 11 11 10 9 8 7 7 7 8 8 7 7 8 8 9 10 11 11 10 11 13 13 11 9 9 10 10 10 9 9 9 9 9 9 10 11 11 11 10 10 10 9 9 9
14 17 19 17 18 19 19 18 18 18 18 17 17 18 19 19 20 21 22 22 22 22 22 20 18 18 16 15 14 12 11 11 11 11 11 11 10 10 11 12 12 12 11 10 10 9 8 7 7 7 7 7 7 7 7 8 9 10 10 11 12 12 10 9 9 9 9 9 9 10 9 9 9 9 9 10 10 9 10 9 9 9 9 9 8
12 12 12 12 11 12 14 14 14 14 14 14 15 15 17 17 16 17 19 19 20 21 21 19 18 17 16 15 14 12 11 10 10 11 10 10 10 9 10 11 11 12 12 11 10 9 8 7 7 7 7 7 7 7 7 7 8 9 10 12 12 9 8 9 9 9 9 9 9 9 9 9 8 8 10 10 8 8 9 9 9 8 9 8 8
10 8 7 9 6 5 7 6 8 9 10 11 10 12 13 14 14 14 16 15 16 18 18 17 18 16 15 15 14 13 12 11 11 11 10 9 9 9 9 10 11 12 12 12 11 10 8 7 7 7 8 7 8 8 6 6 6 8 10 11 9 7 7 8 8 9 9 9 8 9 9 8 8 8 10 9 7 8 9 9 8 8 8 8 8
11 9 9 10 6 4 3 2 5 4 4 6 3 8 10 10 10 11 13 13 14 15 15 16 16 16 15 14 13 13 12 11 11 11 11 10 10 9 9 9 10 11 12 12 11 10 9 8 7 7 8 8 9 8 6 6 5 7 9 8 6 7 8 7 8 8 8 8 8 9 9 8 8 9 8 7 7 8 9 8 7 8 7 7 7
14 12 10 10 9 7 5 4 4 10 2 3 5 4 7 6 7 8 10 12 14 14 14 15 14 14 15 14 12 12 11 11 11 12 11 11 10 10 9 9 10 11 11 10 10 11 10 9 7 7 8 8 8 7 7 6 5 5 6 6 7 7 7 6 7 8 8 8 9 9 8 9 8 7 7 7 8 8 8 8 7 7 7 7 7
14 13 11 11 9 7 4 6 2 4 4 2 3 2 5 5 5 5 7 10 11 12 12 12 12 12 13 12 11 11 11 11 11 12 11 11 11 11 11 10 10 11 11 11 10 11 10 10 9 8 7 7 7 7 7 6 5 5 5 6 7 7 7 6 6 7 7 8 8 8 8 8 7 6 7 8 8 7 7 8 7 7 7 6 6
11 11 13 13 10 7 5 2 2 3 3 1 1 1 3 4 5 5 6 8 8 9 10 9 9 10 10 9 10 11 10 10 11 12 11 10 11 12 11 11 11 12 12 12 11 11 10 10 10 8 7 6 6 7 7 6 6 5 5 6 7 7 7 6 6 6 7 6 6 7 8 8 7 7 7 7 7 7 6 6 7 7 7 6 6
10 11 14 14 10 8 6 5 6 5 5 4 4 4 2 3 4 5 7 8 7 6 6 6 7 8 8 8 9 10 10 10 11 12 11 10 11 11 11 10 11 11 11 10 10 10 9 9 9 8 7 7 7 7 6 6 6 5 5 5 6 6 6 6 6 6 6 6 6 6 7 7 7 7 7 7 7 7 7 6 7 7 7 7 6
11 12 14 13 10 9 9 7 7 6 6 6 6 5 4 5 6 6 8 9 8 6 6 6 5 6 7 7 8 9 10 10 10 11 11 10 10 10 10 10 10 10 10 9 9 9 9 8 8 8 7 7 7 7 7 7 6 5 5 5 5 5 5 6 6 6 6 6 6 7 7 7 7 7 6 7 7 6 7 7 7 7 6 6 6
13 13 13 13 11 10 10 7 6 6 6 5 6 6 4 4 7 8 9 10 10 8 7 9 8 8 9 9 9 9 10 10 10 10 10 10 10 9 9 9 9 9 8 8 9 9 9 8 8 8 8 7 7 7 7 7 6 6 6 6 5 5 5 5 5 5 5 6 6 7 8 8 7 6 6 7 7 6 7 7 7 7 6 6 6
14 14 14 14 12 9 8 6 5 5 5 5 5 7 6 4 6 9 10 10 10 8 8 9 9 9 9 10 11 10 10 9 9 9 9 9 9 9 8 8 8 8 8 8 8 8 8 8 8 9 8 8 8 7 7 7 7 6 6 6 6 5 5 4 4 4 4 5 5 6 7 9 9 8 7 8 7 7 7 7 7 7 6 6 6
14 15 15 15 14 11 8 7 6 5 5 5 5 6 6 5 6 9 10 10 11 10 9 8 9 9 8 10 11 10 10 8 7 7 7 8 8 8 8 8 8 7 8 8 8 8 8 8 8 9 9 9 8 8 8 7 7 7 6 6 6 6 5 5 4 4 4 4 5 6 6 6 9 10 9 9 9 8 7 7 7 7 7 7 7
16 17 16 16 16 14 11 9 7 6 5 5 5 5 5 5 6 8 9 10 11 12 11 10 11 12 10 10 10 10 10 8 5 4 5 6 7 7 7 7 8 7 7 7 8 8 8 8 9 9 9 9 9 9 8 7 7 7 7 7 7 7 6 5 5 5 5 4 4 6 5 4 6 9 10 10 10 9 8 8 8 8 8 8 8
16 17 18 20 19 17 14 12 9 7 7 6 5 5 5 5 6 8 9 10 10 11 12 11 12 12 12 11 8 9 11 10 5 4 6 6 6 7 8 8 8 8 8 7 8 8 9 9 10 10 10 10 10 9 8 8 8 7 7 8 7 7 7 7 6 6 6 6 5 5 5 5 6 7 9 11 11 10 9 9 9 8 9 9 8
15 16 18 19 18 18 16 14 12 10 8 7 6 5 5 6 7 8 8 9 9 9 10 11 10 13 15 12 9 12 15 14 11 9 9 8 8 8 9 9 9 9 9 8 9 9 10 10 11 11 12 11 11 10 9 8 8 8 8 8 7 7 7 7 7 7 7 7 7 6 5 6 6 7 8 9 9 10 11 11 9 10 10 9 9
16 16 16 16 16 17 16 15 14 12 9 7 6 6 5 5 6 7 7 8 8 9 11 11 10 13 16 14 14 17 18 17 16 14 13 14 14 12 12 12 11 10 10 10 10 10 11 11 12 12 12 12 11 11 11 9 9 9 8 8 8 8 8 8 7 7 8 8 7 7 7 6 6 7 8 9 7 6 9 12 12 11 11 10 10
18 17 16 15 16 17 16 16 16 15 13 9 7 6 5 5 5 6 7 8 9 10 11 11 11 13 16 17 16 17 18 18 17 17 16 16 18 16 14 13 12 12 11 11 11 11 11 12 13 13 13 13 12 12 12 11 11 10 9 9 9 9 8 8 8 8 8 8 8 8 8 8 7 7 7 8 8 6 6 9 12 12 12 12 11
19 18 17 17 16 16 16 16 16 16 15 13 10 6 5 5 5 5 6 7 8 10 10 11 11 12 14 15 15 15 17 18 18 19 17 16 18 17 14 14 13 13 13 13 12 12 12 12 13 14 14 13 13 13 12 12 11 11 10 10 9 9 9 9 9 9 9 9 9 9 10 9 9 9 9 8 8 8 7 7 9 11 12 13 13
19 19 19 17 16 16 15 15 15 14 14 14 12 9 6 5 5 5 6 6 6 8 9 10 11 11 11 11 14 15 16 16 16 18 19 18 18 18 16 15 14 14 15 14 14 13 13 13 13 14 14 14 14 13 13 12 11 11 11 10 10 10 11 10 9 9 10 10 10 10 10 10 10 10 10 9 8 9 8 7 7 10 12 13 14
18 18 18 18 17 16 15 15 15 14 14 13 12 10 8 6 6 6 6 6 6 6 8 9 10 11 11 10 11 12 14 16 15 16 18 19 20 19 18 17 16 16 16 16 15 15 15 15 14 14 14 15 14 13 12 12 11 11 11 11 11 12 12 11 10 10 10 11 11 11 10 10 11 11 11 11 10 9 9 8 7 9 12 11 11
17 17 17 17 17 16 16 15 15 15 14 13 11 11 10 9 8 8 7 7 7 7 8 8 9 10 11 10 11 11 11 14 16 16 17 20 22 20 19 19 18 18 17 16 16 16 16 16 16 15 15 16 15 14 12 11 11 11 12 12 12 13 13 12 11 11 11 12 12 12 12 11 12 12 12 12 11 11 11 10 10 10 11 12 12
16 17 16 16 15 15 15 15 15 15 14 13 13 12 11 11 10 9 9 9 9 9 9 9 9 9 10 11 12 12 11 12 14 17 18 20 22 22 20 20 19 19 18 17 16 16 16 16 16 16 16 17 17 15 13 11 10 10 11 12 13 13 12 13 14 13 13 13 13 13 13 13 13 13 13 13 13 13 12 12 12 11 10 12 14
15 15 15 15 14 14 15 15 15 14 13 13 13 12 12 12 11 11 11 11 10 10 10 10 10 10 11 12 12 12 12 12 12 14 18 20 22 22 22 20 19 17 17 17 17 17 17 17 16 16 16 17 17 16 14 13 12 11 11 10 10 11 13 14 15 15 15 14 14 14 14 15 15 14 13 13 14 14 14 14 14 14 12 11 13
13 14 14 14 14 14 15 15 14 14 13 13 13 13 13 13 13 13 13 13 12 11 12 12 12 12 12 13 14 14 14 13 13 14 17 20 21 22 21 20 19 18 18 17 17 17 18 18 18 17 16 16 16 16 16 16 15 13 10 8 7 8 10 12 15 17 17 16 15 15 16 16 16 15 13 13 14 15 15 15 15 15 15 13 13
13 14 15 14 14 14 16 15 14 14 13 13 14 14 15 14 14 13 13 13 13 13 13 13 13 13 13 14 14 14 14 14 14 15 16 19 20 21 21 20 19 19 20 19 17 18 19 19 20 19 17 17 17 17 17 18 18 14 10 8 7 7 7 9 13 15 16 17 17 16 16 16 16 16 15 15 15 15 15 16 16 16 16 16 15
14 14 14 14 14 14 16 16 14 14 13 13 14 15 14 14 13 13 12 12 13 13 13 12 12 12 12 12 13 13 13 13 14 15 16 18 19 20 21 21 19 18 19 19 19 19 19 20 21 21 20 19 18 18 17 18 18 18 14 9 7 6 5 7 9 9 12 15 16 17 18 17 17 16 16 17 16 15 15 16 16 16 17 18 17
13 12 12 13 13 13 14 15 14 14 14 14 15 15 14 13 13 13 12 12 12 12 12 11 11 11 11 12 12 12 13 13 13 14 15 16 18 19 20 20 19 19 19 20 20 20 19 20 21 21 21 21 20 19 18 16 15 18 20 17 13 10 7 5 5 4 8 11 13 16 18 18 18 17 17 17 16 16 16 16 16 17 18 19 19
12 11 11 12 13 13 14 14 14 14 13 14 15 15 14 13 13 13 13 13 13 13 13 13 12 12 12 12 12 13 13 14 14 14 15 16 16 17 19 19 19 20 19 19 21 21 20 21 21 21 21 21 21 21 19 16 15 16 19 20 20 18 15 11 8 5 5 7 10 14 16 18 18 18 18 17 16 16 16 16 16 16 18 19 20
10 10 11 12 13 13 14 14 15 14 14 15 15 15 15 15 14 14 13 13 14 14 14 14 13 12 12 12 12 12 12 13 14 14 14 16 17 17 18 19 19 20 19 19 21 22 21 19 19 20 20 20 21 21 20 17 17 16 15 17 19 19 20 20 18 14 8 5 8 13 15 16 17 18 18 17 17 16 16 16 15 15 16 18 19
9 10 10 11 12 13 13 14 15 14 14 16 16 15 15 15 15 14 14 14 14 15 15 14 13 13 13 12 11 12 12 12 13 14 14 15 17 18 19 19 20 21 20 20 21 22 21 18 17 18 17 18 19 19 18 18 18 16 14 15 17 18 19 20 21 20 15 10 8 8 11 13 15 17 18 17 17 16 16 16 16 15 15 16 18
9 9 10 11 12 13 14 15 15 14 15 16 15 15 15 15 14 14 15 15 15 15 15 15 14 13 13 12 11 11 11 12 13 13 14 15 16 18 18 18 20 21 20 20 21 21 19 17 16 15 15 16 18 18 17 17 17 16 15 15 15 16 16 16 18 19 17 14 11 9 10 11 11 14 19 19 18 17 16 16 17 16 15 16 17
9 9 10 11 12 13 14 15 14 14 15 16 15 15 16 14 13 13 14 15 15 15 15 15 15 14 13 12 11 11 11 11 12 13 13 14 14 16 17 17 18 20 19 19 20 18 17 17 15 14 16 18 19 19 17 17 16 16 16 16 17 17 14 13 16 15 13 12 10 10 10 10 10 13 16 18 18 17 17 17 17 17 17 16 17
Wind_Direction
146 142 143 161 161 158 151 143 145 144 148 149 151 152 155 156 156 155 153 151 148 146 145 145 142 142 139 133 129 128 128 126 126 123 122 119 118 118 118 117 116 115 114 113 111 109 107 104 101 99 97 96 93 90 88 87 88 89 90 91 90 91 91 91 91 90 89 86 81 75 71 71 73 74 73 73 74 77 81 83 82 77 78 78 78
145 143 143 158 159 157 150 144 143 140 145 148 150 151 154 155 156 155 153 151 147 146 144 142 138 135 132 131 130 129 128 127 125 123 122 119 119 119 118 117 116 115 113 113 112 110 108 106 103 102 101 97 93 88 85 83 82 83 84 85 84 87 89 91 91 88 86 79 69 63 66 73 76 75 73 74 78 81 81 80 81 80 81 79 78
142 142 140 153 156 155 151 146 146 145 147 147 149 151 154 155 155 155 152 151 147 145 141 137 133 132 132 133 132 131 130 128 127 125 123 121 120 119 118 117 116 115 115 115 113 112 111 109 107 105 101 95 89 82 78 75 74 76 79 77 73 75 82 92 93 91 86 74 65 62 69 77 78 76 76 77 79 80 79 80 82 82 82 80 81
139 139 140 149 155 157 155 152 151 149 149 148 149 150 153 154 155 153 152 150 146 142 136 134 133 134 135 135 134 132 131 130 129 126 124 122 121 120 118 119 118 117 118 117 115 114 113 110 105 101 96 90 84 79 75 69 67 69 73 70 66 67 77 89 93 94 91 86 81 76 77 80 78 78 80 79 79 80 81 84 84 82 82 83 84
137 138 140 145 150 159 161 155 153 150 148 145 146 148 150 152 152 151 151 148 144 138 133 135 137 138 138 136 134 132 132 131 129 126 124 122 121 121 121 121 120 120 120 119 117 115 112 108 103 98 94 89 84 81 72 64 64 67 70 69 69 75 85 93 95 94 93 95 94 87 85 83 80 81 83 83 81 82 86 88 87 85 85 86 84
136 137 140 142 143 157 164 160 155 151 147 144 145 147 149 150 150 151 149 146 142 137 135 140 141 139 139 136 134 134 134 132 128 126 124 124 124 123 122 122 122 121 121 119 117 115 111 106 102 98 94 91 86 77 65 60 61 67 72 76 80 88 98 99 95 90 90 94 90 87 88 85 84 84 84 84 83 84 87 88 87 85 87 88 84
135 137 140 142 144 156 163 163 158 151 149 148 148 149 150 150 150 149 145 143 141 137 138 142 143 140 137 136 137 137 135 133 129 126 126 127 126 124 124 124 124 123 121 119 116 113 110 105 101 97 92 87 79 69 62 60 63 72 78 83 89 97 104 99 92 85 85 90 87 87 89 88 89 90 87 84 84 87 87 85 84 84 85 84 84
134 139 142 142 148 159 162 163 160 154 153 152 151 151 151 150 149 146 143 141 139 138 139 142 143 140 139 139 139 139 136 134 130 129 130 130 128 127 126 126 125 122 120 118 114 111 108 106 103 98 92 85 76 68 64 63 69 79 82 86 94 102 101 93 89 85 85 88 88 90 92 93 92 92 89 86 86 86 84 82 84 84 82 81 85
134 140 143 143 151 160 161 162 161 157 156 154 153 153 152 151 148 144 141 140 139 139 140 143 145 142 142 141 140 139 138 135 132 132 134 133 130 129 127 125 124 121 119 114 110 109 108 108 105 100 93 86 78 72 67 67 73 82 85 88 97 102 97 90 88 85 84 87 90 92 93 96 93 91 90 90 90 86 84 87 89 85 83 87 91
136 141 143 143 152 160 160 160 160 159 157 156 155 154 154 152 148 143 140 140 141 141 144 146 146 145 144 143 142 141 139 137 136 136 137 135 132 131 130 126 124 121 118 113 111 110 110 109 106 101 93 87 81 74 69 68 73 82 87 91 98 100 93 87 85 83 85 87 91 90 85 91 93 92 93 92 91 91 93 93 90 86 89 93 93
139 141 142 144 154 160 160 161 161 160 159 158 158 156 155 152 146 142 140 143 143 146 150 149 146 146 145 143 143 142 141 139 139 139 139 138 136 135 133 130 126 124 119 114 113 113 113 110 106 101 94 88 82 75 70 68 73 81 87 93 101 99 89 82 82 83 86 87 92 92 88 91 93 97 99 94 90 92 96 92 88 88 91 92 91
138 139 141 145 155 161 160 162 161 161 161 159 159 157 154 149 144 143 143 144 145 147 150 150 147 146 145 144 142 142 143 142 142 143 143 141 139 139 137 134 132 130 124 120 119 118 116 111 106 99 93 88 82 75 70 69 72 78 86 94 103 98 87 84 85 85 87 88 92 93 91 92 97 102 102 97 92 90 92 90 90 92 92 91 90
137 138 139 143 152 159 161 161 160 160 159 158 157 155 152 148 146 145 146 147 147 148 150 151 148 146 146 144 142 142 144 144 145 146 147 145 143 143 143 141 141 139 130 127 126 123 119 114 108 99 93 88 82 75 70 70 70 75 83 93 106 98 87 87 87 86 87 89 93 92 90 95 101 101 98 96 94 88 86 91 96 95 93 91 91
138 139 139 142 149 158 161 161 160 160 157 157 156 155 152 150 149 148 150 151 151 151 151 151 149 149 149 145 143 143 144 147 148 149 149 148 149 148 149 150 148 142 136 135 131 125 121 115 108 101 95 89 83 76 72 71 69 70 77 93 108 101 90 87 86 88 88 89 92 91 92 99 104 101 97 95 93 92 91 96 100 96 94 93 92
143 142 142 144 149 157 161 162 162 161 160 158 157 156 155 154 152 152 154 155 155 154 153 152 152 153 151 149 147 147 146 148 151 152 151 151 152 152 155 157 150 144 141 139 134 127 119 112 108 104 97 91 84 78 74 71 69 68 76 95 108 103 95 89 88 90 90 90 90 91 93 99 104 102 98 94 92 97 96 96 97 95 97 98 95
146 144 144 146 151 155 161 164 165 165 164 162 160 160 159 158 156 156 157 158 159 157 155 154 155 156 155 154 153 154 152 149 151 153 155 153 154 155 158 162 155 147 145 143 140 130 118 110 105 104 98 91 84 79 77 73 70 68 76 94 106 107 100 88 88 90 89 90 90 93 95 98 100 99 98 95 95 97 97 98 98 98 105 106 101
149 149 147 150 153 156 160 164 167 167 166 165 164 164 163 161 160 160 160 160 160 159 158 156 156 157 157 157 158 159 158 155 153 153 157 157 157 157 159 166 163 154 152 150 145 135 122 112 105 101 97 90 85 80 78 73 70 68 75 91 102 107 97 83 85 87 88 91 93 96 100 103 99 97 99 99 101 101 100 103 102 99 102 105 103
152 152 150 153 156 158 161 163 166 165 165 167 167 167 167 165 164 163 162 160 159 159 159 158 158 159 159 158 158 158 159 161 159 156 155 157 160 161 162 168 171 166 161 158 153 143 129 118 107 99 95 90 86 81 79 75 69 68 74 87 98 98 88 81 85 88 90 91 93 97 103 108 103 99 101 106 108 105 104 104 104 102 101 104 104
154 155 154 157 158 160 162 163 165 165 166 166 169 171 170 168 168 166 163 161 159 160 160 162 162 162 160 159 159 156 156 160 162 163 159 157 160 165 168 170 175 177 171 165 160 152 142 129 114 102 97 92 89 85 80 75 69 67 72 85 92 84 76 77 84 87 90 88 90 98 106 110 111 110 107 112 113 108 109 107 106 106 104 104 104
156 156 156 159 162 163 162 163 164 166 167 167 168 171 174 171 170 168 165 163 161 163 164 165 165 164 163 161 159 157 156 156 160 164 163 162 160 165 170 171 175 180 179 172 167 160 151 139 124 112 104 100 97 90 84 77 71 67 71 81 80 70 70 79 82 83 86 88 91 100 108 109 113 121 119 117 113 110 113 111 110 110 109 105 103
153 155 152 153 158 159 157 159 162 165 163 166 167 169 176 172 169 170 168 167 165 167 167 166 166 165 167 165 160 159 160 159 160 159 158 162 162 168 173 170 172 179 183 179 176 169 159 150 137 125 117 113 106 99 91 80 74 73 72 75 71 70 80 81 79 83 86 91 98 106 112 114 118 127 125 118 114 119 120 117 116 115 115 112 111
143 141 131 133 139 155 154 144 147 166 165 160 164 166 175 172 170 173 173 174 171 171 171 168 167 166 169 169 165 165 166 164 163 157 156 162 165 170 174 172 171 177 184 185 184 178 170 162 149 138 129 116 106 108 104 89 83 77 72 71 71 82 90 85 82 85 88 91 101 114 118 123 128 127 124 118 123 131 123 123 130 124 119 120 121
138 137 143 140 129 124 130 107 43 1 162 140 125 156 169 177 176 177 178 182 180 177 176 176 173 171 171 170 171 171 170 168 165 161 161 165 166 167 170 176 174 175 184 187 189 184 177 172 163 150 135 118 114 124 122 114 106 79 69 72 84 94 95 93 88 85 91 95 106 120 122 131 134 128 126 125 132 134 124 126 138 134 126 128 126
138 137 141 127 105 88 100 176 5 4 87 95 9 141 171 192 189 190 190 190 189 186 184 185 183 179 175 171 173 173 171 171 170 170 168 166 167 166 169 177 177 180 184 179 183 186 179 173 170 155 142 135 135 137 128 126 125 102 86 86 92 97 100 98 92 89 93 98 112 122 125 139 142 134 134 136 136 137 135 134 137 137 137 134 128
126 127 115 100 100 94 99 182 177 42 125 131 9 150 186 205 206 217 216 206 199 196 194 194 192 187 182 177 176 173 173 173 174 177 175 170 169 169 172 175 175 181 180 169 171 179 173 167 168 165 163 160 151 141 131 129 129 121 110 97 95 100 101 98 98 97 96 106 120 127 136 149 148 141 142 142 142 140 137 138 140 141 141 141 138
100 105 99 94 92 85 86 108 72 62 87 89 334 209 199 212 227 235 241 241 226 209 202 201 202 197 192 188 181 176 178 178 175 178 180 177 175 175 177 178 178 180 180 175 172 174 172 169 172 176 175 169 156 145 138 134 132 128 119 105 100 102 101 100 103 102 100 114 131 135 146 158 154 148 147 146 148 146 142 143 147 148 147 148 145
68 75 82 86 82 71 68 55 40 20 15 7 328 320 284 268 270 254 255 266 264 243 228 223 214 208 208 202 190 185 187 186 179 181 184 183 183 183 183 184 184 184 185 184 177 175 176 174 177 182 177 170 162 153 145 139 138 133 127 119 108 105 105 105 105 107 102 111 140 145 147 156 154 155 155 152 153 152 152 153 152 153 155 156 154
56 63 68 70 70 59 52 49 39 21 12 358 341 335 314 306 302 285 272 269 266 261 270 266 237 221 225 217 209 203 200 196 189 187 188 187 188 188 188 189 189 188 189 189 184 180 181 178 179 184 182 175 167 162 154 148 148 144 139 133 123 114 113 112 105 110 104 106 143 155 147 151 158 166 166 157 158 160 157 157 159 161 162 162 163
46 54 63 69 69 50 39 38 30 20 12 356 341 335 329 320 309 296 280 269 261 251 255 254 233 221 229 223 221 223 216 207 199 195 193 194 193 191 192 194 194 191 189 190 188 185 185 182 180 183 185 182 174 169 165 158 155 155 152 147 142 132 124 127 119 116 106 103 139 162 160 169 180 178 171 164 166 169 165 163 165 168 171 174 174
39 45 54 68 76 62 40 34 26 13 5 355 335 328 333 331 311 303 291 277 268 261 257 250 238 227 234 233 225 228 230 222 212 205 200 199 196 195 196 198 199 197 193 192 190 189 190 187 187 186 183 185 182 176 174 169 166 163 160 157 155 151 142 143 145 139 122 111 139 172 177 182 190 189 182 179 179 174 171 171 171 173 179 187 187
40 43 47 57 70 71 55 39 29 17 6 352 331 322 327 323 308 305 300 287 275 272 267 262 261 250 250 254 240 234 241 238 227 220 216 209 205 205 204 204 205 203 200 197 193 192 194 195 196 192 186 188 186 181 180 177 175 172 167 167 164 161 159 160 163 160 152 134 144 169 181 188 194 197 193 189 190 185 181 183 179 180 187 191 194
42 41 45 52 59 63 58 45 32 16 5 352 332 320 318 310 296 293 290 286 279 273 267 260 264 258 254 261 255 250 257 263 253 242 243 232 221 217 214 213 211 208 207 204 200 198 198 200 202 199 196 195 191 186 185 186 184 179 175 175 175 172 169 170 174 174 171 163 153 159 169 195 206 204 200 196 197 195 190 192 190 190 195 194 199
44 41 44 49 53 58 57 51 44 30 16 4 339 318 303 287 276 276 277 281 280 274 269 263 265 263 255 252 255 259 262 269 269 251 249 248 241 229 220 219 217 211 208 205 204 205 204 201 202 202 203 203 198 191 189 193 192 186 183 182 183 182 181 181 181 183 183 179 176 170 165 179 200 210 211 208 210 208 197 198 198 198 202 199 203
44 41 41 44 49 54 56 52 51 46 33 21 1 339 310 288 276 272 271 273 272 268 264 260 260 264 263 260 260 257 251 248 243 235 229 230 238 236 227 220 217 214 207 205 205 207 208 204 203 203 205 207 203 196 194 199 198 194 189 187 191 190 190 192 189 188 190 188 185 184 177 174 185 196 207 214 220 213 200 203 207 205 209 206 206
38 35 35 36 40 45 48 47 46 45 41 33 18 0 338 311 292 281 275 275 274 270 266 259 251 257 265 265 255 249 245 240 236 232 222 215 218 221 224 221 214 213 209 207 206 209 213 208 206 205 205 207 206 202 201 204 202 200 195 191 197 198 199 202 200 198 195 196 195 192 189 184 188 192 203 211 216 217 203 202 208 209 212 213 213
34 29 27 27 29 33 36 37 36 36 34 28 19 7 356 338 314 298 286 282 279 277 275 269 261 259 265 266 256 248 248 244 236 231 224 222 218 210 216 219 212 212 212 211 210 213 215 212 212 210 209 209 210 208 206 209 208 204 199 196 201 204 208 210 207 208 205 203 202 199 196 192 196 202 211 212 208 229 234 212 208 208 210 217 221
32 28 24 21 20 22 24 25 25 25 24 20 15 6 355 347 334 317 300 290 284 282 278 272 266 261 262 264 258 252 251 246 238 231 225 227 225 217 221 222 214 214 215 214 215 216 216 215 216 215 217 218 218 215 211 214 215 213 207 201 203 207 215 220 216 216 214 215 211 207 205 198 198 204 214 220 210 218 244 241 217 208 209 218 224
31 28 25 21 17 15 14 15 15 14 14 11 9 4 354 345 335 322 308 295 286 286 284 274 266 259 255 256 254 255 255 249 241 234 228 226 226 224 226 224 218 215 214 216 217 219 218 217 219 220 222 226 229 225 218 219 222 221 217 211 209 212 219 224 226 225 222 225 221 215 214 206 203 205 211 221 220 212 220 240 235 218 217 219 222
29 25 24 21 17 14 10 8 7 7 6 2 0 358 350 340 332 325 315 304 296 291 291 284 274 267 261 259 257 254 254 251 246 240 233 228 225 223 222 223 223 217 216 219 220 222 222 220 222 223 224 229 234 234 228 225 227 230 228 221 219 220 224 227 230 233 232 232 228 223 222 215 210 208 210 217 223 220 212 217 221 214 219 227 228
27 23 21 19 16 12 9 6 3 2 2 358 355 353 348 341 333 327 321 317 312 302 293 285 277 271 267 267 264 256 252 250 247 245 242 234 229 226 222 222 223 220 218 221 222 223 223 222 225 226 227 231 234 236 234 228 228 234 236 233 231 230 232 233 234 235 235 236 232 229 226 220 215 211 212 216 220 223 216 212 212 210 220 235 241
27 23 19 15 13 10 7 5 2 360 359 356 353 351 347 341 332 323 319 316 312 305 295 287 281 276 273 271 266 261 255 249 245 243 244 241 234 230 227 224 221 220 220 221 224 225 225 225 227 227 229 232 234 233 230 226 223 225 230 233 232 234 235 234 235 235 236 235 231 231 229 222 218 213 212 216 220 221 218 215 216 219 224 228 232
25 22 18 13 9 8 6 2 359 358 356 354 349 344 341 335 326 316 311 308 304 301 296 293 290 282 275 271 267 264 260 254 248 241 240 242 236 229 228 226 221 220 221 222 224 226 227 226 227 229 229 231 234 233 225 218 219 221 226 231 229 228 228 230 236 235 233 231 228 229 229 225 221 216 214 217 221 222 220 218 216 219 223 223 219
24 21 16 12 9 7 3 357 355 353 351 350 345 338 330 325 318 309 305 301 295 293 291 289 286 280 276 274 271 267 262 257 252 244 239 241 238 230 227 223 219 216 217 220 223 226 227 225 226 228 228 229 231 231 223 216 219 223 229 236 232 228 221 221 231 234 230 228 227 228 229 229 225 220 219 222 224 223 222 221 219 219 221 224 220
22 19 14 10 8 3 360 355 352 349 346 343 339 333 326 320 314 306 299 292 287 286 284 282 280 279 278 277 275 270 264 259 254 247 242 242 239 234 229 224 219 216 216 217 219 223 224 224 225 224 226 229 230 229 222 217 221 223 226 235 232 238 235 216 218 224 225 225 225 227 229 229 227 225 224 225 226 225 224 223 222 221 220 222 221
19 15 10 7 3 358 356 353 349 346 342 339 336 331 326 320 315 309 300 289 283 279 277 278 278 278 277 276 275 272 267 261 254 249 245 243 240 236 232 228 223 219 219 218 218 219 219 221 222 223 224 227 230 231 223 216 220 224 227 234 231 237 247 229 219 211 210 216 219 222 226 228 225 224 225 228 228 226 226 226 226 224 222 221 221
19 13 7 3 358 354 351 348 346 342 338 336 334 330 324 320 317 311 305 294 286 280 277 282 285 286 287 286 282 276 269 262 253 247 245 242 241 240 237 235 230 224 223 222 220 218 217 219 220 222 225 226 230 234 229 219 220 226 228 233 241 253 265 252 238 208 199 213 220 221 224 226 224 221 223 227 229 227 227 229 229 226 223 222 222
16 10 4 359 354 350 348 347 344 338 335 333 331 329 321 316 313 308 301 293 286 282 281 284 286 287 290 292 289 282 274 266 257 249 243 240 241 241 240 240 236 230 226 224 223 219 219 219 218 219 223 226 228 233 234 226 223 230 231 234 240 249 257 254 249 245 219 221 229 228 228 226 222 220 221 226 228 228 229 231 232 228 224 225 224
13 7 1 355 351 347 345 345 341 336 333 331 329 326 320 313 309 304 298 291 287 285 284 283 281 281 284 288 288 285 280 274 265 255 246 241 239 238 237 238 237 235 231 229 229 225 223 220 216 217 222 225 226 230 234 230 229 231 228 231 238 243 247 247 247 251 251 240 228 228 232 230 224 221 220 226 230 231 231 231 234 232 227 226 225
7 2 358 353 350 346 343 341 338 335 333 331 328 324 320 313 306 301 296 293 290 287 285 281 278 277 280 284 286 284 282 276 265 257 249 243 239 236 235 235 236 237 235 236 239 237 232 226 217 214 218 225 228 229 231 231 233 234 228 230 236 239 242 243 242 243 245 249 238 223 225 223 222 224 223 225 230 232 233 232 234 236 233 228 227
0 354 352 350 349 347 343 338 335 334 333 332 327 324 323 315 306 302 297 294 291 289 286 281 278 276 277 281 283 283 281 277 269 259 250 245 241 238 237 236 236 237 236 237 244 247 242 236 229 222 221 227 231 229 227 229 232 234 234 236 238 238 239 239 238 237 240 246 248 240 228 214 214 222 220 221 228 231 233 232 232 235 234 231 229
355 350 347 347 346 345 341 336 333 332 334 333 330 329 327 318 309 303 297 294 292 291 288 284 281 277 275 279 282 282 280 279 278 270 258 250 246 243 240 238 238 240 238 235 239 246 248 248 243 234 232 236 238 234 227 227 229 231 233 237 242 242 240 240 238 233 234 240 249 255 246 241 249 239 217 213 223 231 233 232 231 232 232 232 231